Home > Weather > Marburg > Past weeks

Flag for Germany Past Weather in Marburg, Hesse, Germany — Yesterday and Last 2 Weeks

Now
70 °F

Partly sunny.


Feels Like: 70 °F
Forecast: 62 / 76 °F
Wind: 5 mph from East

Location: Hessen

Current Time: Jul 24, 2016 at 12:54:45 PM

Latest Report: Jul 24, 2016 at 12:20 PM


Visibility: N/A

Pressure: 30.15 "Hg

Humidity: 69%

Dew Point: 59 °F

Location of MarburgLocation

Past Weather in Marburg — Graph

°F

Marburg Temperature Yesterday

Maximum temperature yesterday: 70 °F (at 5:20 PM)
Minimum temperature yesterday: 63 °F (at 7:50 AM)
Average temperature yesterday: 65 °F

High & Low Weather Summary for the Past Weeks

 TemperatureHumidityPressure
High84 °F (Jul 20, 2:50 PM)100% (Jul 13, 7:50 PM)30.30 "Hg (Jul 13, 7:50 PM)
Low48 °F (Jul 14, 7:50 AM)40% (Jul 20, 3:50 PM)29.89 "Hg (Jul 10, 7:20 PM)
Average66 °F70%30.10 "Hg
* Reported Jul 9 11:20 AM — Jul 24 11:50 AM, Marburg, Weather by CustomWeather, © 2016

Note: Actual official high and low records may vary slightly from our data, if they occured in-between our weather recording intervals... More about our weather records

Advertising

Marburg Weather History for the Previous 24 Hours

Scroll right to see more
 ConditionsComfort  
Time TempWeatherWind HumidityBarometerVisibility
11:50 AM
Sun, Jul 24
70 °FPartly sunny.5 mph64%30.15 "HgN/A
11:20 AM70 °FPassing clouds.6 mph60%30.15 "HgN/A
10:50 AM68 °FScattered clouds.7 mph64%30.15 "HgN/A
10:20 AM68 °FSunny.7 mph69%30.15 "Hg10 mi
9:50 AM68 °FPassing clouds.6 mph64%30.15 "HgN/A
9:20 AM66 °FSunny.5 mph68%30.15 "Hg10 mi
8:50 AM64 °FSunny.5 mph73%30.12 "Hg10 mi
8:20 AM63 °FSunny.6 mph83%30.12 "Hg10 mi
7:50 AM63 °FSunny.7 mph83%30.12 "Hg10 mi
8:50 PM
Sat, Jul 23
64 °FLight rain. Broken clouds.6 mph88%30.12 "HgN/A
8:20 PM66 °FPartly sunny.5 mph88%30.09 "HgN/A
7:50 PM66 °FBroken clouds.6 mph83%30.09 "HgN/A
7:20 PM66 °FBroken clouds.6 mph83%30.09 "HgN/A
6:50 PM66 °FBroken clouds.7 mph88%30.09 "HgN/A
6:20 PM68 °FBroken clouds.8 mph83%30.09 "HgN/A
5:50 PM68 °FBroken clouds.10 mph83%30.09 "HgN/A
5:20 PM70 °FBroken clouds.7 mph83%30.09 "HgN/A
4:50 PM66 °FBroken clouds.8 mph94%30.12 "HgN/A
3:50 PM68 °FBroken clouds.8 mph83%30.12 "HgN/A
3:20 PM68 °FBroken clouds.7 mph83%30.12 "HgN/A
2:50 PM66 °FBroken clouds.8 mph94%30.12 "HgN/A
2:20 PM66 °FBroken clouds.8 mph94%30.12 "HgN/A
1:50 PM64 °FBroken clouds.7 mph100%30.12 "Hg4 mi
1:20 PM64 °FBroken clouds.5 mph100%30.12 "Hg4 mi
12:50 PM64 °FBroken clouds.3 mph100%30.12 "HgN/A
12:20 PM64 °FBroken clouds.5 mph100%30.12 "Hg2 mi
Weather by CustomWeather, © 2016

See weather overviewHow to use our weather pages